This demonstration page uses our WeatherBlox Daily Observations layout. Learn more.

38.88101, -77.10428

Hourly Observations for June 16, 2015

Temp ( °F °C ) Dew Point ( °F °C ) Humidity (%) Winds ( mph kmh ) Pressure ( in mb ) Visibility ( mi km ) Precip ( " mm )
12:52 am 00:52 Partly Cloudy 79 26.1 73 22.8 82 82 Calm 29.98 1015 10 16.0934 0 0
1:52 am 01:52 Mostly Clear 78 25.6 73 22.8 85 85 SSW 5 7 29.97 1015 10 16.0934 0 0
2:52 am 02:52 Mostly Cloudy 78 25.6 73 22.8 85 85 S 5 7 29.96 1014 10 16.0934 0 0
3:52 am 03:52 Mostly Cloudy 78 25.6 73 22.8 85 85 SSW 3 6 29.95 1014 10 16.0934 0 0
4:52 am 04:52 Mostly Cloudy 77 25 73 22.8 88 88 SSW 7 11 29.94 1014 10 16.0934 0 0
5:52 am 05:52 Mostly Cloudy 78 25.6 73 22.8 85 85 SW 3 6 29.94 1014 10 16.0934 0 0
6:52 am 06:52 Mostly Cloudy 79 26.1 73 22.8 82 82 SSW 3 6 29.95 1014 10 16.0934 0 0
7:52 am 07:52 Mostly Cloudy 82 27.8 74 23.3 77 77 SSW 5 7 29.95 1014 10 16.0934 0 0
8:52 am 08:52 Mostly Cloudy 83 28.3 76 24.4 79 79 S 8 13 29.96 1014 10 16.0934 0 0
9:52 am 09:52 Mostly Cloudy 88 31.1 75 23.9 66 66 S 9 15 29.93 1014 10 16.0934 0 0
10:52 am 10:52 Partly Cloudy 91 32.8 75 23.9 59 59 S 7 11 29.92 1013 10 16.0934 0 0
11:26 am 11:26 Mostly Cloudy 93 34 70 21 47 47 W 13 20 29.94 1014 10 16.0934 0 0
11:52 am 11:52 Mostly Cloudy 95 35 71 21.7 46 46 W 10 17 29.92 1013 10 16.0934 0 0
12:52 pm 12:52 Mostly Cloudy 93 33.9 71 21.7 49 49 W 12 19 29.93 1013 10 16.0934 0 0
1:52 pm 13:52 Mostly Cloudy 94 34.4 72 22.2 49 49 N 12 19 29.91 1013 10 16.0934 0 0
2:52 pm 14:52 Mostly Cloudy 95 35 70 21.1 44 44 WNW 14 22 29.91 1013 10 16.0934 0 0
3:52 pm 15:52 Mostly Cloudy 95 35 69 20.6 43 43 W 16 26 29.9 1012 10 16.0934 0 0
4:52 pm 16:52 Mostly Cloudy 95 35 68 20 41 41 WNW 16 26 29.89 1012 10 16.0934 0 0
5:52 pm 17:52 Sunny 94 34.4 68 20 43 43 WNW 16 26 29.9 1013 10 16.0934 0 0
6:52 pm 18:52 Mostly Cloudy 91 32.8 68 20 47 47 NW 12 19 29.91 1013 10 16.0934 0 0
7:52 pm 19:52 Mostly Cloudy 88 31.1 67 19.4 50 50 WNW 14 22 29.93 1014 10 16.0934 0 0
8:52 pm 20:52 Mostly Cloudy 85 29.4 68 20 57 57 NW 8 13 29.96 1015 10 16.0934 0 0
9:52 pm 21:52 Mostly Cloudy 83 28.3 68 20 61 61 NW 10 17 29.99 1016 10 16.0934 0 0
10:52 pm 22:52 Mostly Cloudy 83 28.3 68 20 61 61 NW 10 17 30.01 1016 10 16.0934 0 0
11:52 pm 23:52 Mostly Cloudy 81 27.2 68 20 65 65 NNW 14 22 30.01 1016 10 16.0934 0 0

Powered by AerisWeather